www.pogodaiklimat.ru
ПОГОДА в Ескилстуне

Архив погоды в Ескилстуне (Швеция)

Время
(UTC), дата
01 13.08
02 13.08
03 13.08
04 13.08
05 13.08
06 13.08
07 13.08
08 13.08
09 13.08
10 13.08
11 13.08
12 13.08
13 13.08
14 13.08
15 13.08
16 13.08
17 13.08
18 13.08
19 13.08
20 13.08
21 13.08
22 13.08
23 13.08
00 14.08
01 14.08
02 14.08
03 14.08
04 14.08
05 14.08
06 14.08
07 14.08
08 14.08
09 14.08
10 14.08
11 14.08
12 14.08
13 14.08
14 14.08
15 14.08
16 14.08
17 14.08
18 14.08
19 14.08
20 14.08
21 14.08
22 14.08
23 14.08
00 15.08
01 15.08
02 15.08
03 15.08
04 15.08
05 15.08
06 15.08
07 15.08
08 15.08
09 15.08
10 15.08
11 15.08
12 15.08
13 15.08
14 15.08
15 15.08
16 15.08
17 15.08
18 15.08
19 15.08
20 15.08
21 15.08
22 15.08
23 15.08
00 16.08
01 16.08
02 16.08
03 16.08
04 16.08
05 16.08
06 16.08
07 16.08
08 16.08
09 16.08
10 16.08
11 16.08
12 16.08
13 16.08
14 16.08
15 16.08
16 16.08
17 16.08
18 16.08
19 16.08
20 16.08
21 16.08
22 16.08
23 16.08
00 17.08
01 17.08
02 17.08
03 17.08
04 17.08
05 17.08
06 17.08
07 17.08
08 17.08
09 17.08
10 17.08
11 17.08
12 17.08
13 17.08
14 17.08
15 17.08
16 17.08
17 17.08
18 17.08
19 17.08
20 17.08
21 17.08
22 17.08
23 17.08
00 18.08
01 18.08
02 18.08
03 18.08
04 18.08
05 18.08
06 18.08
07 18.08
08 18.08
09 18.08
10 18.08
11 18.08
12 18.08
13 18.08
14 18.08
15 18.08
16 18.08
17 18.08
18 18.08
19 18.08
20 18.08
21 18.08
22 18.08
23 18.08
00 19.08
01 19.08
02 19.08
03 19.08
04 19.08
05 19.08
06 19.08
07 19.08
08 19.08
09 19.08
10 19.08
11 19.08
12 19.08
13 19.08
14 19.08
15 19.08
16 19.08
17 19.08
18 19.08
19 19.08
20 19.08
21 19.08
22 19.08
23 19.08
00 20.08
01 20.08
Ветер
(напр.,м/с)
Видим. Явления Облачность Т
(С)
Тd
(С)
f
(%)
Тe
(С)
Тes
(С)
Комфортность P
(гПа)
Po
(гПа)
Тmin
(С)
Tmax
(С)
R
(мм)
R24
(мм)
S
(см)
ЮВ 1
{2}
30 км н/о +15.8 +13.1 84 +16 +16 1022.2 1020.7
штиль 0
{3}
н/о н/о +14.1 +11.5 84 +14 +14 1022.1 1020.6
штиль 0
{1}
н/о н/о +13.7 +11.7 88 +13 +13 1022.1 1020.6
штиль 0
{1}
н/о туман н/о +11.6 +8.6 82 +11 +11 1021.9 1020.4
штиль 0
{1}
н/о н/о +16.3 +13.0 81 +16 +16 1021.8 1020.3
штиль 0
{2}
40 км н/о +20.0 +15.2 74 +22 +22 комфорт 1021.4 1019.9 +11.3 +26.2
В 1
{2}
35 км н/о +21.0 +15.2 69 +25 +25 комфорт 1021.3 1019.9
В 1
{3}
40 км н/о +23.5 +15.3 60 +26 +26 жарко 1021.3 1019.8
СВ 1
{2}
45 км н/о +25.1 +15.3 55 +28 +28 жарко 1021.3 1019.8
ЮВ 1
{6}
30 км н/о +27.1 +12.7 41 +29 +29 жарко 1020.8 1019.4
З 4
{6}
35 км н/о +28.2 +11.9 36 +29 +29 жарко 1020.6 1019.1
З 5
{8}
30 км н/о +28.5 +10.3 32 +29 +29 жарко 1020.3 1018.9
З 4
{7}
29 км н/о +28.6 +11.2 34 +29 +29 жарко 1019.8 1018.4
ЮЗ 3
{8}
40 км н/о +29.6 +10.3 30 +30 +30 жарко 1019.3 1017.9
З 4
{7}
30 км н/о +29.4 +11.4 33 +30 +30 жарко 1019.1 1017.7
З 4
{7}
45 км н/о +29.0 +10.5 32 +29 +29 жарко 1018.6 1017.2
З 3
{6}
35 км н/о +28.1 +8.3 29 +28 +28 жарко 1018.2 1016.8
З 1
{4}
45 км н/о +25.3 +10.0 38 +26 +26 жарко 1018.4 1016.9 +19.7 +29.7
ЮВ 2
{3}
45 км н/о +22.9 +11.5 49 +25 +25 комфорт 1018.7 1017.3
Ю 1
{3}
40 км н/о +21.6 +10.9 51 +23 +23 комфорт 1019.0 1017.5
Ю 1
{3}
40 км н/о +19.8 +9.9 53 +22 +22 комфорт 1019.0 1017.5
штиль 0
{2}
50 км н/о +16.0 +8.7 62 +16 +16 1019.2 1017.7
штиль 0
{2}
50 км н/о +14.8 +9.0 68 +15 +15 1019.0 1017.6
штиль 0
{1}
50 км н/о +13.6 +8.5 71 +13 +13 1018.8 1017.3
штиль 0
{2}
45 км н/о +12.7 +8.9 78 +12 +12 1018.8 1017.3
штиль 0
{2}
35 км н/о +12.4 +8.9 79 +12 +12 1018.7 1017.2
штиль 0
{1}
20 км н/о +12.0 +9.2 83 +11 +11 1018.6 1017.1
штиль 0
{1}
25 км н/о +13.0 +9.5 79 +13 +13 1018.5 1017.0
штиль 0
{1}
35 км н/о +17.6 +13.0 74 +18 +18 1018.4 1016.9
ЮВ 1
{2}
35 км н/о +20.6 +13.6 64 +24 +24 комфорт 1018.3 1016.8 +11.6 +26.0
В 1
{3}
28 км н/о +23.2 +13.4 54 +26 +26 жарко 1018.2 1016.8
Ю 1
{4}
23 км н/о +25.3 +10.5 39 +26 +26 жарко 1018.0 1016.6
Ю 2
{5}
29 км н/о +26.3 +10.8 38 +27 +27 жарко 1017.8 1016.4
Ю 2
{5}
35 км н/о +27.5 +8.6 30 +27 +27 жарко 1017.5 1016.0
ЮВ 2
{6}
45 км н/о +28.5 +7.0 26 +28 +28 жарко 1017.1 1015.7
ЮВ 2
{6}
35 км н/о +29.0 +7.7 26 +28 +28 жарко 1016.9 1015.5
В 3
{6}
40 км н/о +29.9 +7.8 25 +29 +29 жарко 1016.4 1015.0
ЮВ 2
{8}
35 км н/о +29.0 +4.5 21 +27 +27 жарко 1015.9 1014.5
Ю 2
{6}
40 км н/о +28.9 +2.3 18 +27 +27 жарко 1015.6 1014.2
Ю 1
{6}
40 км н/о +27.0 +4.0 23 +26 +26 жарко 1015.4 1014.0
Ю 1
{4}
40 км н/о +26.1 +8.2 32 +26 +26 жарко 1015.2 1013.7
штиль 0
{2}
40 км н/о +24.1 +9.7 40 +25 +25 комфорт 1015.2 1013.7 +20.5 +30.2
ЮВ 1
{5}
50 км н/о +22.2 +10.9 49 +24 +24 комфорт 1015.6 1014.1
штиль 0
{3}
50 км н/о +19.3 +9.4 53 +20 +20 1015.7 1014.2
В 1
{3}
50 км н/о +19.1 +10.4 57 +21 +21 комфорт 1015.8 1014.3
штиль 0
{2}
50 км н/о +15.8 +10.1 69 +16 +16 1015.8 1014.3
штиль 0
{1}
30 км н/о +14.3 +10.7 79 +14 +14 1015.5 1014.0
штиль 0
{1}
1000 м дымка н/о +12.9 +10.1 83 +12 +12 1015.2 1013.7
штиль 0
{1}
н/о туман н/о +10.9 +8.0 82 +10 +10 1015.2 1013.7
штиль 0
{1}
н/о н/о +11.2 +8.8 85 +11 +11 1014.9 1013.4
штиль 0 н/о н/о +9.0 +6.6 85 +8 +8 1014.6 1013.1
штиль 0
{1}
200 м туман н/о +11.5 +9.0 85 +11 +11 1014.3 1012.8
ЮВ 1
{1}
8000 м в посл. час туман 1/1 1500 м +16.1 +13.6 85 +17 +18 1014.1 1012.7
В 2
{4}
30 км 1/0 +18.8 +15.9 83 +20 +23 1013.9 1012.4 +8.3 +24.2
В 1
{3}
30 км н/о +21.8 +16.4 71 +26 +26 душно 1013.5 1012.1
В 2
{3}
29 км 1/0 +23.6 +16.3 64 +27 +34 жарко 1013.5 1012.1
ЮВ 3
{6}
45 км 4/4 1300 м +24.4 +16.9 63 +28 +32 душно 1014.1 1012.6
В 2
{7}
10 км ливневой дождь 6/6 1200 м +20.3 +16.1 77 +24 +28 комфорт 1014.3 1012.9
В 2
{3}
35 км в посл. час дождь 1/0 +22.7 +17.3 72 +28 +38 душно 1013.6 1012.2 0.1
В 2
{4}
35 км в посл. час дождь 1/0 +23.0 +17.2 70 +28 +38 душно 1013.4 1011.9
В 2
{4}
35 км в посл. час дождь 3/0 +23.9 +17.0 65 +28 +35 душно 1013.0 1011.6
В 3
{5}
30 км 1/0 +24.2 +17.6 67 +28 +33 душно 1012.6 1011.1
В 3
{6}
28 км н/о +26.2 +17.4 58 +30 +30 душно 1011.8 1010.4
В 3
{6}
35 км н/о +27.0 +17.5 56 +31 +31 душно 1011.3 1009.9
В 3
{7}
45 км н/о +26.7 +16.1 52 +30 +30 душно 1011.0 1009.6
ЮВ 2
{6}
35 км н/о +25.6 +15.7 54 +29 +29 душно 1011.5 1010.1 +18.8 +27.3
В 2
{4}
35 км н/о +24.1 +16.2 61 +27 +27 жарко 1012.0 1010.6
В 1
{3}
35 км 6/0 +21.5 +15.2 67 +25 +25 комфорт 1012.1 1010.7
ЮВ 1
{3}
30 км н/о +20.4 +15.3 73 +24 +24 комфорт 1012.0 1010.6
В 1
{3}
25 км н/о +20.2 +16.4 79 +24 +24 комфорт 1011.8 1010.4
В 1
{3}
н/о н/о +18.0 +15.5 85 +19 +19 1011.5 1010.0
СВ 1
{2}
н/о н/о +16.9 +14.2 84 +18 +18 1011.3 1009.8
штиль 0
{1}
н/о н/о +16.4 +13.3 82 +16 +16 1011.1 1009.6
штиль 0
{2}
н/о н/о +16.6 +14.6 88 +16 +16 1011.0 1009.5
штиль 0
{1}
н/о 5/0 +16.3 +14.1 87 +16 +16 1010.6 1009.1
штиль 0
{1}
н/о туман н/о +16.3 +13.9 86 +16 +16 1010.4 1008.9
штиль 0
{1}
7000 м дымка н/о +18.7 +16.0 84 +20 +20 1010.6 1009.1
ЮВ 1
{2}
22 км 1/1 1500 м +22.9 +17.6 72 +28 +31 душно 1010.2 1008.7 +15.3 +25.6
ЮВ 1
{5}
26 км н/о +24.4 +17.9 67 +29 +29 душно 1010.0 1008.6
В 2
{4}
11 км н/о +25.8 +18.5 64 +31 +31 очень
душно
1009.9 1008.5
В 3
{5}
27 км 4/0 +25.6 +18.0 63 +30 +36 душно 1010.1 1008.7
В 2
{6}
25 км в посл. час дождь 3/0 +24.3 +19.0 72 +29 +38 душно 1009.9 1008.5 0.2
ЮВ 2
{6}
30 км 1/0 +26.1 +18.8 64 +31 +41 очень
душно
1010.0 1008.6
ЮВ 3
{7}
30 км 1/0 +26.8 +17.6 57 +31 +39 душно 1009.8 1008.4
ЮВ 4
{8}
30 км н/о +28.4 +14.7 43 +31 +31 душно 1009.1 1007.7
ЮВ 3
{11}
35 км н/о +28.4 +15.4 45 +31 +31 душно 1008.6 1007.2
ЮВ 3
{9}
35 км н/о +28.2 +15.7 47 +31 +31 душно 1008.2 1006.8
Ю 3
{9}
30 км 1/0 +26.9 +15.6 50 +30 +32 душно 1008.3 1006.9
ЮВ 2
{9}
35 км н/о +24.9 +16.5 60 +28 +28 жарко 1008.3 1006.9
ЮВ 2
{9}
30 км н/о +23.7 +16.5 64 +27 +27 жарко 1008.9 1007.4 +22.8 +29.0
ЮВ 1
{6}
30 км н/о +22.9 +16.3 66 +27 +27 душно 1008.9 1007.4
ЮВ 2
{6}
30 км н/о +22.3 +16.6 70 +27 +27 душно 1008.5 1007.1
Ю 1
{6}
24 км н/о +21.3 +16.3 73 +25 +25 комфорт 1008.7 1007.3
ЮВ 1
{5}
20 км н/о +20.9 +16.5 76 +26 +26 душно 1008.7 1007.2
Ю 2
{4}
17 км н/о +20.5 +17.0 80 +24 +24 комфорт 1009.0 1007.6
Ю 2
{4}
14 км 4/4 1380 м +20.1 +16.9 82 +24 +24 комфорт 1008.8 1007.4
Ю 1
{4}
н/о н/о +19.5 +17.0 85 +23 +23 комфорт 1009.0 1007.6
Ю 1
{3}
7000 м дымка н/о +18.9 +16.3 85 +21 +21 комфорт 1009.2 1007.8
Ю 1
{3}
н/о н/о +18.5 +15.8 84 +20 +20 1009.4 1008.0
Ю 1
{2}
800 м туман н/о +18.2 +16.2 88 +20 +20 1009.5 1008.1
Ю 1
{2}
10 км в посл. час туман 1/1 700 м +19.9 +17.0 83 +24 +25 комфорт 1009.8 1008.4
ЮЗ 1
{4}
15 км 10/10 300 м +20.6 +17.1 80 +25 +25 комфорт 1010.1 1008.6 +17.1 +23.8
Ю 2
{4}
20 км 1/1 450 м +22.3 +17.4 74 +27 +31 душно 1010.2 1008.8
ЮЗ 2
{6}
20 км 1/1 600 м +24.0 +17.0 65 +28 +34 душно 1010.4 1008.9
ЮЗ 3
{7}
27 км 1/1 800 м +25.3 +16.8 59 +29 +35 душно 1010.5 1009.1
З 3
{7}
27 км 5/5 930 м +24.7 +16.4 60 +28 +32 душно 1010.7 1009.2
З 4
{8}
30 км 1/0 +24.6 +16.5 61 +28 +35 душно 1010.8 1009.4
З 3
{7}
30 км 1/0 +25.5 +17.0 59 +29 +37 душно 1011.0 1009.6
ЮЗ 4
{8}
28 км 1/0 +26.7 +16.2 53 +30 +35 душно 1010.9 1009.4
З 5
{9}
30 км 1/1 1110 м +26.0 +15.6 53 +29 +32 душно 1010.6 1009.1
ЮЗ 4
{10}
30 км 1/1 1110 м +26.5 +15.2 50 +29 +32 жарко 1010.6 1009.2
З 4
{7}
28 км н/о +24.8 +14.8 54 +28 +28 жарко 1011.3 1009.9
З 4
{7}
35 км 1/1 1020 м +23.8 +14.5 56 +26 +27 жарко 1011.8 1010.3
СЗ 2
{6}
30 км н/о +21.5 +13.8 62 +24 +24 комфорт 1012.3 1010.9 +20.6 +27.2
штиль 0
{2}
35 км н/о +18.9 +13.2 69 +20 +20 1012.7 1011.3
штиль 0
{1}
20 км н/о +17.0 +12.0 72 +17 +17 1013.2 1011.8
штиль 0
{1}
17 км н/о +16.5 +12.6 78 +16 +16 1013.5 1012.0
штиль 0
{1}
16 км н/о +15.8 +12.6 81 +16 +16 1014.1 1012.6
З 2
{2}
16 км н/о +16.1 +13.2 83 +16 +16 1014.3 1012.8
З 1
{2}
13 км 1/1 870 м +15.7 +13.0 84 +16 +16 1014.4 1013.0
штиль 0
{1}
11 км 10/10 900 м +15.7 +12.9 83 +15 +15 1014.7 1013.2
штиль 0
{1}
15 км 8/8 1140 м +16.5 +12.7 78 +16 +16 1014.7 1013.3
штиль 0
{1}
15 км 10/10 900 м +16.1 +12.3 78 +16 +16 1014.6 1013.1
штиль 0
{1}
16 км 10/10 870 м +16.7 +13.7 82 +17 +17 1015.1 1013.6
штиль 0
{1}
20 км 3/3 1080 м +18.2 +13.8 75 +18 +19 1015.7 1014.2
Ю 1
{1}
23 км н/о +20.6 +14.8 69 +24 +24 комфорт 1015.9 1014.4 +14.7 +21.5
С 3
{4}
35 км 1/0 +20.9 +14.9 69 +24 +28 комфорт 1016.2 1014.7
В 3
{5}
30 км н/о +23.2 +14.8 59 +27 +27 душно 1016.2 1014.8
В 3
{6}
35 км н/о +24.2 +14.1 53 +27 +27 жарко 1016.0 1014.6
В 2
{7}
35 км 1/0 +25.1 +15.1 54 +28 +37 жарко 1015.8 1014.3
СВ 3
{6}
30 км 1/0 +24.9 +14.9 54 +28 +36 жарко 1015.7 1014.3
В 3
{6}
30 км н/о +25.3 +15.8 56 +29 +29 душно 1015.4 1014.0
В 3
{6}
40 км 1/1 1170 м +25.7 +14.9 51 +28 +34 жарко 1014.9 1013.5
В 3
{6}
35 км 1/1 1440 м +25.6 +15.0 52 +28 +33 жарко 1014.4 1013.0
З 10
{18}
5000 м сильн. ливневой дождь 10/10 540 м +17.8 +14.8 83 +17 +17 1014.7 1013.2 2
СВ 2
{18}
40 км в посл. час дождь 5/5 1170 м +20.2 +15.8 76 +24 +25 комфорт 1014.4 1013.0 0.0
В 2
{3}
40 км н/о +22.2 +16.8 71 +27 +27 душно 1013.9 1012.5
СВ 2
{4}
35 км 5/0 +21.4 +17.0 76 +25 +25 комфорт 1014.5 1013.1 +16.1 +27.0
СВ 2
{4}
35 км 6/0 +20.4 +16.4 78 +24 +24 комфорт 1014.7 1013.3
В 1
{3}
35 км 4/4 720 м +19.5 +15.7 79 +23 +23 комфорт 1014.7 1013.3
В 2
{3}
22 км 6/6 1260 м +18.7 +15.5 82 +20 +20 1014.7 1013.3
В 1
{3}
14 км 3/3 420 м +19.4 +16.3 82 +22 +22 комфорт 1014.6 1013.1
В 2
{4}
12 км 10/10 270 м +19.6 +16.9 84 +22 +22 комфорт 1014.3 1012.9
В 2
{4}
13 км 10/10 240 м +19.7 +17.0 84 +23 +23 комфорт 1013.8 1012.4
В 2
{5}
10 км 10/10 210 м +19.7 +17.1 85 +23 +23 комфорт 1013.7 1012.2
В 2
{4}
11 км 10/10 240 м +19.6 +17.0 85 +22 +22 комфорт 1013.8 1012.3
В 1
{3}
11 км 10/10 270 м +19.8 +17.1 84 +23 +23 комфорт 1013.9 1012.4
В 1
{3}
12 км 10/10 270 м +19.9 +16.8 82 +24 +24 комфорт 1014.0 1012.6
В 2
{3}
13 км 10/10 270 м +20.2 +17.1 82 +24 +24 комфорт 1014.0 1012.6
ЮВ 1
{4}
16 км 5/5 330 м +21.6 +16.8 74 +26 +27 душно 1014.0 1012.5 +17.6 +21.7
В 2
{4}
20 км н/о +22.4 +17.6 74 +27 +27 душно 1013.7 1012.3
В 1
{4}
18 км н/о +25.4 +16.5 58 +29 +29 душно 1014.0 1012.5
В 2
{4}
21 км н/о +26.4 +17.1 57 +30 +30 душно 1013.9 1012.5
Ю 2
{5}
23 км н/о +27.7 +15.2 46 +30 +30 жарко 1013.6 1012.2
ЮЗ 2
{6}
24 км н/о +29.2 +15.7 44 +32 +32 душно 1013.4 1011.9
Ю 2
{7}
22 км н/о +29.7 +15.1 41 +32 +32 душно 1012.9 1011.5
В 3
{6}
17 км н/о +29.6 +15.7 43 +32 +32 душно 1012.5 1011.1
В 3
{7}
15 км н/о +29.9 +14.0 38 +32 +32 жарко 1012.1 1010.7
В 4
{6}
19 км н/о +29.5 +14.6 40 +32 +32 душно 1011.9 1010.5
ЮВ 2
{7}
23 км н/о +28.7 +14.7 42 +31 +31 жарко 1011.9 1010.5
ЮВ 2
{6}
35 км н/о +27.3 +15.2 48 +30 +30 душно 1011.9 1010.5
ЮВ 3
{6}
35 км 3/0 +26.5 +15.8 52 +30 +30 душно 1012.0 1010.6 +21.3 +30.5
В 2
{6}
35 км 4/0 +25.4 +16.5 58 +29 +29 душно 1011.9 1010.5
ЮВ 2
{5}
27 км 4/0 2000 м +24.2 +17.5 66 +28 +28 душно 1012.0 1010.6
В 1
{5}
25 км 1/0 +23.2 +18.0 73 +29 +29 душно 1011.7 1010.3
Ю 1
{4}
20 км 3/3 1500 м +22.5 +17.9 75 +28 +28 душно 1011.3 1009.8
ЮВ 1
{5}
22 км 4/0 +22.4 +17.8 75 +27 +27 душно 1010.7 1009.2
Ю 1
{5}
19 км слаб. ливневой дождь 1/1 1500 м +21.1 +17.4 79 +25 +25 комфорт 1010.4 1009.0 0.0
Ю 1
{2}
8000 м слаб. ливневой дождь 5/5 1110 м +20.0 +17.2 84 +24 +24 комфорт 1010.1 1008.7 0.0
Местоположение метеостанции Ескилстуна (Швеция): широта 59.35 долгота 16.72 высота над уровнем моря 42 м.
В архиве по умолчанию представлена погода в Ескилстуне за последнюю неделю. Архивные данные за месяц целиком и за предыдущие месяцы, начиная с января 2011 года, Вы можете получить, выбрав интересующий диапазон дат из раскрывающегося списка и нажав кнопку "Найти!".
*Определитесь, кто Вы:
Внимание! Время в таблицах - всемирное. Для получения местного времени необходимо прибавить поправку, которая равна 1 ч.
Смотрите также архив погоды в соседних городах и на ближайших метеорологических станциях:
Партнеры нашего сайта:      
Пояснения к столбцам:
  • Ветер - указаны скорость ветра в м/с - средняя за 10 мин, порывы в срок и между сроками (в фигурных скобках) и направление, откуда дует ветер: С - северный,
  • СВ - северо-восточный, В - восточный, ЮВ - юго-восточный, Ю - южный, ЮЗ - юго-западный, З - западный, СЗ - северо-западный.
  • Видимость - горизонтальная дальность видимости в метрах или километрах. При видимости от 1 до 10 км при отсутствии осадков обычно наблюдается дымка, при ухудшении видимости до 1 км и менее - туман. В сухую погоду видимость может ухудшаться дымом, пылью или мглою.
  • Явления - указаны атмосферные явления, наблюдавшиеся в срок или в последний час перед сроком; фигурными скобками обозначены явления, наблюдавшиеся между сроками (за 1-3 часа до срока); квадратными скобками обозначены град или гололедные отложения с указанием их диаметра в мм.
  • Облачность - указаны через наклонную черту общая и нижняя облачность в баллах и высота нижней границы облаков в метрах; квадратными скобками обозначены формы облаков: Ci - перистые, Cs - перисто-слоистые, Cc - перисто-кучевые, Ac - высококучевые, As - высокослоистые, Sc - слоисто-кучевые, Ns - слоисто-дождевые, Cu - кучевые, Cb - кучево-дождевые. Подробнее классификацию облаков см. в Атласе облаков (PDF).
  • T - Температура воздуха - температура, измеренная на высоте 2 м над землей.
  • Td - Температура точки росы - температура, при понижении до которой содержащийся в воздухе водяной пар достигнет насыщения.
  • f - Относительная влажность воздуха - влажноcть воздуха, измеренная на высоте 2 м над землей.
  • Te - Эффективная температура - температура, которую ощущает одетый по сезону человек в тени. Характеристика душности погоды. При расчете учитывается влияние влажности воздуха и скорости ветра на теплоощущения человека.
  • Tes - Эффективная температура на солнце - температура, которую ощущает человек, с поправкой на солнечный нагрев. Характеристика знойности погоды. Зависит от высоты солнца над горизонтом, облачности и скорости ветра. Ночью, в пасмурную погоду, а также при ветре 12 м/с и более поправка равна нулю.
  • P - Атмосферное давление - приведенное к уровню моря атмосферное давление.
  • Po - Атмосферное давление - измеренное на уровне метеостанции атмосферное давление.
  • Tmin - Минимальная температура - минимум температуры воздуха на высоте 2 м над землей.
  • Tmax - Максимальная температура - максимум температуры воздуха на высоте 2 м над землей.
  • R - Количество осадков - Количество выпавших осадков за период времени, мм. При наведении курсора мыши на число - период времени, за который выпало указанное количество осадков.
  • R24 - Количество осадков - Количество выпавших осадков за 24 часа, мм.
  • S - Снежный покров - Высота снежного покрова, см. При наведении курсора мыши на число - состояние снежного покрова и степень покрытия местности в баллах.